QPF
0.13 0.14 0.17 0.16 0.20 0.22 0.20 0.16 0.12 0.08 0.04 0.02 0.01 0.01 0.01 0.01 0.00 0.00 0.00 0.00 0.00 0.00 0.00 0.00 0.00 0.00 0.00 0.00 0.00 0.00 0.00 0.00 0.00 0.00 0.00 0.00 0.00 0.00 0.00 0.01 0.01 0.02 0.02
0.06 0.08 0.12 0.17 0.18 0.18 0.18 0.14 0.11 0.06 0.03 0.02 0.01 0.01 0.01 0.01 0.00 0.00 0.00 0.00 0.00 0.00 0.00 0.00 0.00 0.00 0.00 0.00 0.00 0.00 0.00 0.00 0.00 0.00 0.00 0.00 0.00 0.00 0.00 0.00 0.00 0.01 0.01
0.04 0.06 0.08 0.11 0.13 0.13 0.14 0.11 0.08 0.05 0.03 0.01 0.01 0.00 0.00 0.00 0.00 0.00 0.00 0.00 0.00 0.00 0.00 0.00 0.00 0.00 0.00 0.00 0.00 0.00 0.00 0.00 0.00 0.00 0.00 0.00 0.00 0.00 0.00 0.00 0.00 0.00 0.00
0.03 0.04 0.05 0.07 0.09 0.09 0.09 0.08 0.05 0.04 0.02 0.01 0.01 0.00 0.00 0.00 0.00 0.00 0.00 0.00 0.00 0.00 0.00 0.00 0.00 0.00 0.00 0.00 0.00 0.00 0.00 0.00 0.00 0.00 0.00 0.00 0.00 0.00 0.00 0.00 0.00 0.00 0.00
0.01 0.02 0.03 0.04 0.06 0.07 0.07 0.06 0.04 0.02 0.01 0.01 0.01 0.01 0.00 0.00 0.00 0.00 0.00 0.00 0.00 0.00 0.00 0.00 0.00 0.00 0.00 0.00 0.00 0.00 0.00 0.00 0.00 0.00 0.00 0.00 0.00 0.00 0.00 0.00 0.00 0.00 0.00
0.01 0.02 0.03 0.04 0.04 0.04 0.04 0.04 0.03 0.02 0.01 0.01 0.00 0.00 0.00 0.00 0.00 0.00 0.00 0.00 0.00 0.00 0.00 0.00 0.00 0.00 0.00 0.00 0.00 0.00 0.00 0.00 0.00 0.00 0.00 0.00 0.00 0.00 0.00 0.00 0.00 0.00 0.00
0.01 0.02 0.03 0.04 0.03 0.02 0.02 0.02 0.01 0.01 0.01 0.00 0.00 0.00 0.01 0.01 0.01 0.01 0.00 0.00 0.00 0.00 0.00 0.00 0.00 0.00 0.00 0.00 0.00 0.00 0.00 0.00 0.00 0.00 0.00 0.00 0.00 0.00 0.00 0.00 0.00 0.00 0.00
0.00 0.01 0.02 0.03 0.01 0.01 0.01 0.01 0.01 0.01 0.00 0.00 0.00 0.00 0.01 0.00 0.00 0.01 0.00 0.00 0.00 0.00 0.00 0.00 0.00 0.00 0.00 0.00 0.00 0.00 0.00 0.00 0.00 0.00 0.00 0.00 0.00 0.00 0.00 0.00 0.00 0.00 0.00
0.00 0.00 0.00 0.01 0.00 0.00 0.00 0.00 0.00 0.00 0.00 0.00 0.00 0.00 0.00 0.00 0.00 0.00 0.00 0.00 0.00 0.00 0.00 0.00 0.00 0.00 0.00 0.00 0.00 0.00 0.00 0.00 0.00 0.00 0.00 0.00 0.00 0.00 0.00 0.00 0.00 0.00 0.00
0.00 0.00 0.00 0.00 0.00 0.00 0.00 0.00 0.00 0.00 0.00 0.00 0.00 0.00 0.00 0.00 0.00 0.00 0.00 0.00 0.00 0.00 0.00 0.00 0.00 0.00 0.00 0.00 0.00 0.00 0.00 0.00 0.00 0.00 0.00 0.00 0.00 0.00 0.00 0.00 0.00 0.00 0.00
0.00 0.00 0.00 0.00 0.00 0.00 0.00 0.00 0.00 0.00 0.00 0.00 0.00 0.00 0.00 0.00 0.00 0.00 0.00 0.00 0.00 0.00 0.00 0.00 0.00 0.00 0.00 0.00 0.00 0.00 0.00 0.00 0.00 0.00 0.00 0.00 0.00 0.00 0.00 0.00 0.00 0.00 0.00
0.00 0.00 0.00 0.00 0.00 0.00 0.00 0.00 0.00 0.00 0.00 0.00 0.00 0.01 0.00 0.00 0.00 0.00 0.00 0.00 0.00 0.00 0.00 0.00 0.00 0.00 0.00 0.00 0.00 0.00 0.00 0.00 0.00 0.00 0.00 0.00 0.00 0.00 0.00 0.00 0.00 0.00 0.00
0.00 0.00 0.00 0.00 0.00 0.00 0.00 0.00 0.00 0.00 0.00 0.00 0.00 0.00 0.00 0.00 0.00 0.00 0.00 0.00 0.00 0.00 0.00 0.00 0.00 0.00 0.00 0.00 0.00 0.00 0.00 0.00 0.00 0.00 0.00 0.00 0.00 0.00 0.00 0.00 0.00 0.00 0.00
0.00 0.00 0.00 0.00 0.00 0.00 0.00 0.00 0.00 0.00 0.00 0.00 0.00 0.00 0.00 0.00 0.00 0.00 0.00 0.00 0.00 0.00 0.00 0.00 0.00 0.00 0.00 0.00 0.00 0.00 0.00 0.00 0.00 0.00 0.00 0.00 0.00 0.00 0.00 0.00 0.00 0.00 0.00
0.01 0.00 0.01 0.00 0.00 0.00 0.00 0.00 0.00 0.00 0.00 0.00 0.00 0.00 0.00 0.00 0.00 0.00 0.00 0.00 0.00 0.00 0.00 0.00 0.00 0.00 0.00 0.00 0.00 0.00 0.00 0.00 0.00 0.00 0.00 0.00 0.00 0.00 0.00 0.00 0.00 0.00 0.00
0.01 0.01 0.01 0.01 0.01 0.00 0.00 0.00 0.00 0.00 0.00 0.00 0.00 0.01 0.01 0.01 0.01 0.01 0.00 0.00 0.00 0.00 0.00 0.00 0.00 0.00 0.00 0.00 0.00 0.00 0.00 0.00 0.00 0.00 0.00 0.00 0.00 0.00 0.00 0.00 0.00 0.00 0.00
0.02 0.02 0.02 0.02 0.01 0.01 0.01 0.01 0.00 0.01 0.01 0.01 0.01 0.01 0.01 0.01 0.01 0.01 0.01 0.01 0.00 0.00 0.00 0.00 0.00 0.00 0.00 0.00 0.00 0.00 0.00 0.00 0.00 0.00 0.00 0.00 0.00 0.00 0.00 0.00 0.00 0.00 0.00
0.02 0.02 0.02 0.02 0.02 0.02 0.02 0.02 0.01 0.01 0.01 0.01 0.01 0.02 0.02 0.02 0.01 0.01 0.01 0.01 0.01 0.01 0.00 0.00 0.00 0.00 0.00 0.01 0.00 0.01 0.00 0.00 0.00 0.00 0.00 0.00 0.00 0.00 0.00 0.00 0.00 0.00 0.00
0.02 0.02 0.02 0.02 0.02 0.02 0.02 0.02 0.02 0.02 0.02 0.02 0.02 0.03 0.03 0.02 0.02 0.02 0.02 0.03 0.02 0.02 0.02 0.01 0.01 0.01 0.01 0.01 0.02 0.01 0.01 0.00 0.00 0.00 0.00 0.00 0.00 0.00 0.00 0.00 0.00 0.00 0.00
0.01 0.01 0.01 0.01 0.01 0.02 0.02 0.02 0.02 0.02 0.02 0.03 0.03 0.03 0.03 0.03 0.03 0.03 0.03 0.03 0.03 0.03 0.03 0.02 0.02 0.01 0.01 0.01 0.02 0.02 0.01 0.01 0.01 0.01 0.01 0.01 0.01 0.01 0.01 0.01 0.00 0.01 0.01
0.02 0.01 0.01 0.01 0.01 0.01 0.01 0.01 0.01 0.01 0.02 0.02 0.02 0.02 0.03 0.03 0.03 0.03 0.03 0.04 0.04 0.03 0.03 0.02 0.02 0.02 0.02 0.02 0.03 0.03 0.02 0.01 0.01 0.01 0.01 0.01 0.02 0.01 0.01 0.01 0.01 0.01 0.01
0.01 0.01 0.01 0.00 0.00 0.00 0.00 0.01 0.01 0.01 0.01 0.01 0.01 0.01 0.01 0.01 0.02 0.02 0.02 0.02 0.02 0.02 0.02 0.01 0.01 0.01 0.02 0.02 0.02 0.03 0.02 0.02 0.01 0.01 0.01 0.01 0.01 0.01 0.01 0.01 0.01 0.01 0.01
0.00 0.00 0.01 0.00 0.00 0.00 0.00 0.00 0.00 0.00 0.00 0.00 0.00 0.00 0.00 0.01 0.01 0.01 0.01 0.01 0.01 0.01 0.01 0.01 0.01 0.01 0.01 0.01 0.02 0.02 0.02 0.02 0.02 0.01 0.02 0.02 0.02 0.02 0.02 0.01 0.01 0.01 0.01
0.01 0.01 0.00 0.00 0.00 0.00 0.00 0.00 0.00 0.00 0.00 0.00 0.00 0.00 0.00 0.00 0.00 0.00 0.00 0.00 0.00 0.00 0.00 0.00 0.00 0.00 0.01 0.01 0.01 0.02 0.02 0.03 0.03 0.02 0.02 0.02 0.02 0.02 0.02 0.02 0.02 0.02 0.02
0.01 0.00 0.00 0.00 0.00 0.00 0.00 0.00 0.00 0.00 0.00 0.00 0.00 0.00 0.00 0.00 0.00 0.00 0.00 0.00 0.00 0.00 0.00 0.00 0.00 0.00 0.00 0.01 0.01 0.01 0.01 0.01 0.01 0.02 0.02 0.02 0.02 0.02 0.02 0.03 0.03 0.04 0.04
0.00 0.00 0.00 0.00 0.00 0.00 0.00 0.00 0.00 0.00 0.00 0.00 0.00 0.00 0.00 0.00 0.00 0.00 0.00 0.00 0.00 0.00 0.00 0.01 0.01 0.01 0.01 0.01 0.01 0.01 0.01 0.01 0.01 0.02 0.02 0.02 0.02 0.03 0.04 0.05 0.06 0.06 0.07
MSLP
1013.28 1013.77 1014.25 1014.68 1015.06 1015.39 1015.69 1015.97 1016.25 1016.55 1016.87 1017.21 1017.57 1017.93 1018.29 1018.63 1018.94 1019.21 1019.44 1019.62 1019.73 1019.78 1019.78 1019.71 1019.61 1019.49 1019.36 1019.24 1019.15 1019.09 1019.07 1019.06 1019.07 1019.08 1019.06 1019.02 1018.94 1018.83 1018.69 1018.53 1018.38 1018.25 1018.15
1013.52 1014.11 1014.65 1015.10 1015.47 1015.76 1015.99 1016.20 1016.41 1016.65 1016.93 1017.25 1017.60 1017.96 1018.33 1018.67 1018.98 1019.26 1019.48 1019.66 1019.80 1019.88 1019.92 1019.91 1019.86 1019.79 1019.69 1019.59 1019.50 1019.42 1019.36 1019.32 1019.30 1019.28 1019.27 1019.23 1019.17 1019.08 1018.95 1018.79 1018.62 1018.44 1018.29
1013.65 1014.33 1014.94 1015.43 1015.80 1016.06 1016.24 1016.39 1016.54 1016.73 1016.96 1017.26 1017.59 1017.95 1018.30 1018.64 1018.94 1019.20 1019.42 1019.60 1019.74 1019.85 1019.93 1019.98 1019.99 1019.97 1019.92 1019.85 1019.77 1019.69 1019.62 1019.56 1019.52 1019.50 1019.48 1019.46 1019.42 1019.35 1019.24 1019.09 1018.90 1018.70 1018.51
1013.62 1014.39 1015.06 1015.60 1015.99 1016.24 1016.40 1016.50 1016.61 1016.76 1016.96 1017.23 1017.54 1017.88 1018.22 1018.54 1018.82 1019.06 1019.26 1019.43 1019.58 1019.71 1019.83 1019.92 1020.00 1020.04 1020.05 1020.03 1019.98 1019.91 1019.84 1019.78 1019.73 1019.70 1019.69 1019.68 1019.66 1019.61 1019.52 1019.38 1019.20 1018.99 1018.77
1013.42 1014.23 1014.96 1015.54 1015.96 1016.23 1016.40 1016.50 1016.59 1016.72 1016.90 1017.15 1017.44 1017.76 1018.08 1018.38 1018.63 1018.85 1019.03 1019.19 1019.34 1019.49 1019.63 1019.78 1019.91 1020.01 1020.08 1020.11 1020.10 1020.06 1020.01 1019.96 1019.92 1019.89 1019.88 1019.88 1019.87 1019.84 1019.76 1019.64 1019.47 1019.26 1019.02
1013.04 1013.87 1014.62 1015.24 1015.70 1016.01 1016.20 1016.32 1016.43 1016.57 1016.75 1016.99 1017.27 1017.58 1017.88 1018.15 1018.38 1018.57 1018.74 1018.89 1019.03 1019.19 1019.37 1019.55 1019.73 1019.89 1020.02 1020.10 1020.14 1020.14 1020.12 1020.08 1020.06 1020.04 1020.03 1020.04 1020.04 1020.01 1019.95 1019.84 1019.68 1019.48 1019.25
1012.52 1013.32 1014.06 1014.70 1015.19 1015.55 1015.79 1015.96 1016.11 1016.28 1016.48 1016.73 1017.01 1017.30 1017.59 1017.84 1018.05 1018.23 1018.39 1018.53 1018.68 1018.85 1019.05 1019.26 1019.48 1019.69 1019.86 1020.00 1020.09 1020.13 1020.14 1020.13 1020.12 1020.12 1020.12 1020.13 1020.13 1020.11 1020.06 1019.96 1019.81 1019.62 1019.40
1011.90 1012.62 1013.33 1013.96 1014.48 1014.88 1015.18 1015.42 1015.63 1015.84 1016.07 1016.34 1016.62 1016.91 1017.19 1017.44 1017.64 1017.82 1017.97 1018.12 1018.28 1018.47 1018.68 1018.92 1019.17 1019.41 1019.63 1019.80 1019.93 1020.02 1020.07 1020.09 1020.10 1020.11 1020.12 1020.13 1020.14 1020.12 1020.08 1019.99 1019.85 1019.68 1019.47
1011.24 1011.86 1012.50 1013.09 1013.62 1014.06 1014.42 1014.72 1014.99 1015.25 1015.52 1015.81 1016.10 1016.40 1016.67 1016.92 1017.13 1017.31 1017.48 1017.65 1017.83 1018.03 1018.27 1018.53 1018.80 1019.06 1019.31 1019.51 1019.68 1019.80 1019.88 1019.93 1019.97 1020.00 1020.02 1020.04 1020.05 1020.04 1020.00 1019.92 1019.80 1019.64 1019.46
1010.63 1011.12 1011.66 1012.20 1012.71 1013.17 1013.57 1013.92 1014.23 1014.54 1014.85 1015.15 1015.46 1015.76 1016.03 1016.28 1016.51 1016.71 1016.90 1017.10 1017.30 1017.54 1017.80 1018.07 1018.36 1018.64 1018.90 1019.13 1019.32 1019.46 1019.58 1019.66 1019.72 1019.77 1019.81 1019.84 1019.85 1019.85 1019.81 1019.75 1019.65 1019.52 1019.36
1010.16 1010.51 1010.94 1011.41 1011.87 1012.31 1012.72 1013.10 1013.45 1013.78 1014.10 1014.41 1014.72 1015.01 1015.28 1015.54 1015.78 1016.01 1016.23 1016.46 1016.71 1016.97 1017.26 1017.56 1017.85 1018.14 1018.41 1018.65 1018.85 1019.02 1019.15 1019.26 1019.34 1019.41 1019.47 1019.51 1019.54 1019.55 1019.53 1019.48 1019.40 1019.30 1019.17
1009.91 1010.14 1010.45 1010.81 1011.21 1011.61 1012.00 1012.37 1012.72 1013.05 1013.36 1013.66 1013.95 1014.22 1014.48 1014.74 1014.99 1015.24 1015.50 1015.77 1016.05 1016.35 1016.66 1016.97 1017.28 1017.57 1017.84 1018.08 1018.29 1018.47 1018.62 1018.74 1018.85 1018.94 1019.01 1019.07 1019.11 1019.13 1019.14 1019.11 1019.06 1018.99 1018.90
1009.96 1010.06 1010.25 1010.51 1010.81 1011.14 1011.48 1011.82 1012.14 1012.44 1012.72 1012.98 1013.23 1013.47 1013.71 1013.95 1014.20 1014.46 1014.74 1015.04 1015.36 1015.69 1016.02 1016.35 1016.66 1016.95 1017.21 1017.44 1017.65 1017.83 1017.99 1018.12 1018.24 1018.35 1018.44 1018.51 1018.57 1018.61 1018.64 1018.64 1018.63 1018.59 1018.54
1010.30 1010.30 1010.37 1010.52 1010.73 1010.97 1011.24 1011.51 1011.78 1012.03 1012.25 1012.46 1012.66 1012.85 1013.05 1013.25 1013.49 1013.75 1014.04 1014.35 1014.69 1015.03 1015.37 1015.70 1016.00 1016.28 1016.53 1016.75 1016.95 1017.12 1017.28 1017.42 1017.55 1017.66 1017.76 1017.85 1017.93 1017.99 1018.04 1018.08 1018.10 1018.11 1018.10
1010.92 1010.83 1010.81 1010.85 1010.96 1011.11 1011.30 1011.50 1011.69 1011.88 1012.04 1012.19 1012.32 1012.45 1012.59 1012.75 1012.95 1013.18 1013.46 1013.76 1014.09 1014.42 1014.76 1015.07 1015.36 1015.62 1015.85 1016.05 1016.23 1016.39 1016.53 1016.67 1016.80 1016.91 1017.03 1017.13 1017.22 1017.30 1017.37 1017.43 1017.49 1017.54 1017.58
1011.72 1011.58 1011.48 1011.44 1011.45 1011.52 1011.63 1011.76 1011.90 1012.02 1012.12 1012.20 1012.27 1012.33 1012.40 1012.51 1012.65 1012.83 1013.06 1013.33 1013.62 1013.93 1014.23 1014.51 1014.77 1015.00 1015.20 1015.37 1015.53 1015.67 1015.80 1015.92 1016.04 1016.16 1016.27 1016.38 1016.47 1016.57 1016.66 1016.74 1016.83 1016.91 1016.98
1012.59 1012.42 1012.28 1012.18 1012.13 1012.14 1012.19 1012.27 1012.36 1012.43 1012.48 1012.51 1012.51 1012.51 1012.52 1012.55 1012.62 1012.74 1012.90 1013.11 1013.34 1013.59 1013.83 1014.07 1014.28 1014.47 1014.63 1014.78 1014.90 1015.02 1015.13 1015.24 1015.35 1015.45 1015.56 1015.66 1015.75 1015.85 1015.94 1016.04 1016.14 1016.24 1016.33
1013.41 1013.24 1013.09 1012.96 1012.89 1012.87 1012.89 1012.95 1013.01 1013.06 1013.08 1013.07 1013.03 1012.97 1012.91 1012.87 1012.86 1012.90 1012.97 1013.09 1013.24 1013.42 1013.59 1013.77 1013.93 1014.08 1014.20 1014.31 1014.41 1014.50 1014.59 1014.68 1014.77 1014.85 1014.94 1015.02 1015.10 1015.17 1015.26 1015.34 1015.44 1015.53 1015.63
1014.08 1013.95 1013.81 1013.70 1013.63 1013.61 1013.64 1013.69 1013.75 1013.80 1013.81 1013.78 1013.71 1013.61 1013.50 1013.39 1013.30 1013.24 1013.23 1013.25 1013.31 1013.40 1013.51 1013.62 1013.73 1013.83 1013.92 1014.00 1014.08 1014.15 1014.21 1014.27 1014.33 1014.39 1014.43 1014.48 1014.52 1014.56 1014.61 1014.66 1014.73 1014.79 1014.86
1014.58 1014.50 1014.40 1014.32 1014.29 1014.30 1014.35 1014.43 1014.50 1014.56 1014.57 1014.54 1014.45 1014.32 1014.15 1013.98 1013.82 1013.68 1013.57 1013.51 1013.48 1013.49 1013.53 1013.58 1013.65 1013.72 1013.78 1013.85 1013.90 1013.95 1013.99 1014.02 1014.04 1014.05 1014.04 1014.03 1014.01 1013.99 1013.98 1013.97 1013.97 1013.99 1014.00
1014.91 1014.89 1014.85 1014.82 1014.84 1014.89 1014.97 1015.07 1015.17 1015.24 1015.26 1015.21 1015.11 1014.95 1014.75 1014.52 1014.29 1014.08 1013.90 1013.76 1013.66 1013.61 1013.60 1013.61 1013.65 1013.70 1013.76 1013.82 1013.86 1013.89 1013.90 1013.89 1013.85 1013.79 1013.71 1013.61 1013.50 1013.39 1013.29 1013.21 1013.13 1013.07 1013.02
1015.13 1015.17 1015.20 1015.23 1015.28 1015.37 1015.48 1015.60 1015.70 1015.77 1015.78 1015.72 1015.59 1015.41 1015.17 1014.90 1014.62 1014.36 1014.12 1013.93 1013.79 1013.70 1013.65 1013.65 1013.69 1013.74 1013.80 1013.85 1013.89 1013.90 1013.87 1013.80 1013.69 1013.54 1013.35 1013.14 1012.92 1012.70 1012.49 1012.30 1012.14 1012.00 1011.88
1015.33 1015.43 1015.50 1015.58 1015.66 1015.77 1015.88 1015.99 1016.08 1016.12 1016.10 1016.01 1015.85 1015.62 1015.35 1015.05 1014.73 1014.44 1014.17 1013.95 1013.79 1013.69 1013.64 1013.65 1013.69 1013.76 1013.83 1013.88 1013.91 1013.89 1013.81 1013.67 1013.47 1013.20 1012.89 1012.55 1012.19 1011.84 1011.50 1011.20 1010.94 1010.72 1010.54
1015.58 1015.71 1015.82 1015.91 1016.01 1016.11 1016.20 1016.27 1016.30 1016.29 1016.21 1016.07 1015.86 1015.60 1015.29 1014.96 1014.63 1014.31 1014.04 1013.82 1013.66 1013.56 1013.53 1013.56 1013.62 1013.71 1013.79 1013.84 1013.85 1013.79 1013.65 1013.42 1013.11 1012.72 1012.26 1011.77 1011.26 1010.77 1010.30 1009.89 1009.54 1009.26 1009.03
1015.90 1016.05 1016.17 1016.27 1016.35 1016.41 1016.45 1016.46 1016.42 1016.32 1016.17 1015.96 1015.69 1015.38 1015.04 1014.69 1014.35 1014.03 1013.76 1013.55 1013.41 1013.34 1013.34 1013.38 1013.47 1013.56 1013.65 1013.69 1013.67 1013.55 1013.34 1013.01 1012.57 1012.04 1011.44 1010.79 1010.13 1009.50 1008.91 1008.40 1007.98 1007.65 1007.40
1016.27 1016.43 1016.55 1016.63 1016.68 1016.69 1016.67 1016.59 1016.46 1016.28 1016.04 1015.76 1015.43 1015.08 1014.71 1014.34 1014.00 1013.69 1013.44 1013.25 1013.13 1013.07 1013.08 1013.14 1013.23 1013.32 1013.39 1013.40 1013.33 1013.16 1012.86 1012.43 1011.87 1011.21 1010.46 1009.68 1008.88 1008.12 1007.43 1006.84 1006.37 1006.01 1005.77
Thickness
5723 5723 5724 5725 5726 5725 5727 5727 5726 5726 5726 5726 5725 5723 5722 5721 5720 5718 5714 5712 5712 5712 5712 5714 5711 5713 5714 5712 5714 5714 5714 5715 5715 5717 5717 5719 5720 5720 5718 5719 5719 5719 5717
5722 5721 5723 5724 5725 5724 5725 5725 5725 5725 5726 5726 5726 5724 5723 5721 5721 5717 5713 5712 5711 5711 5712 5710 5713 5711 5710 5709 5710 5709 5713 5713 5713 5713 5714 5713 5713 5712 5716 5715 5715 5715 5715
5726 5723 5724 5725 5726 5725 5726 5727 5727 5726 5726 5725 5725 5722 5719 5719 5719 5716 5715 5713 5711 5711 5709 5709 5710 5709 5712 5710 5707 5708 5708 5711 5711 5712 5711 5710 5711 5711 5711 5709 5710 5710 5710
5731 5728 5727 5728 5728 5730 5731 5730 5728 5727 5726 5725 5725 5723 5720 5720 5720 5719 5718 5714 5712 5711 5709 5708 5707 5707 5710 5706 5709 5707 5708 5706 5710 5709 5707 5707 5707 5706 5706 5707 5709 5706 5705
5737 5733 5733 5734 5735 5735 5734 5733 5730 5728 5727 5726 5724 5722 5722 5723 5723 5720 5717 5715 5714 5712 5710 5708 5707 5706 5708 5706 5705 5704 5705 5706 5706 5706 5706 5704 5703 5704 5702 5701 5701 5704 5704
5743 5740 5739 5738 5738 5738 5737 5735 5731 5729 5727 5725 5725 5722 5722 5722 5721 5718 5718 5716 5717 5715 5712 5709 5707 5706 5707 5704 5703 5702 5702 5702 5700 5701 5702 5701 5701 5700 5699 5697 5695 5697 5699
5748 5745 5742 5740 5739 5739 5739 5738 5733 5730 5729 5727 5726 5724 5723 5721 5719 5720 5720 5719 5720 5718 5714 5712 5708 5707 5705 5703 5702 5700 5700 5699 5696 5696 5697 5698 5697 5696 5694 5692 5693 5691 5695
5755 5751 5748 5746 5744 5743 5742 5741 5737 5734 5733 5730 5728 5727 5725 5725 5726 5723 5723 5721 5721 5721 5717 5712 5709 5706 5704 5703 5700 5701 5698 5696 5694 5694 5691 5692 5693 5692 5690 5688 5686 5686 5689
5761 5757 5754 5752 5750 5748 5746 5745 5742 5738 5736 5734 5731 5729 5728 5727 5728 5725 5722 5723 5721 5720 5715 5712 5709 5707 5704 5701 5699 5699 5696 5693 5692 5692 5689 5688 5691 5687 5687 5685 5682 5679 5678
5765 5763 5760 5758 5756 5754 5751 5749 5746 5742 5740 5737 5734 5733 5731 5729 5728 5726 5724 5723 5720 5718 5715 5712 5709 5706 5703 5700 5697 5696 5694 5690 5689 5687 5685 5683 5686 5685 5683 5681 5679 5677 5673
5768 5766 5764 5764 5761 5758 5755 5751 5748 5744 5741 5739 5737 5735 5734 5732 5729 5727 5725 5722 5720 5717 5713 5711 5708 5705 5703 5699 5695 5694 5692 5688 5687 5685 5683 5680 5678 5679 5679 5677 5675 5673 5670
5772 5770 5767 5765 5762 5759 5757 5753 5750 5747 5744 5742 5739 5736 5734 5732 5730 5728 5726 5723 5719 5716 5713 5710 5707 5704 5701 5698 5694 5691 5690 5687 5684 5682 5680 5678 5677 5674 5672 5672 5671 5669 5667
5769 5768 5766 5763 5761 5759 5757 5755 5752 5749 5747 5744 5740 5737 5734 5732 5730 5728 5726 5722 5718 5715 5712 5709 5705 5702 5699 5696 5693 5690 5688 5685 5683 5681 5678 5676 5673 5670 5670 5667 5666 5665 5664
5763 5762 5761 5759 5758 5756 5755 5753 5751 5751 5748 5744 5740 5737 5735 5733 5730 5727 5724 5721 5717 5713 5710 5707 5704 5700 5697 5695 5692 5688 5685 5683 5681 5679 5676 5674 5671 5668 5665 5663 5661 5659 5657
5754 5753 5753 5752 5751 5750 5749 5749 5748 5747 5744 5741 5737 5735 5733 5731 5728 5724 5721 5718 5714 5711 5708 5704 5701 5698 5695 5693 5690 5685 5683 5679 5677 5675 5673 5672 5669 5666 5662 5661 5659 5656 5652
5743 5743 5743 5743 5742 5742 5742 5742 5741 5740 5738 5734 5732 5732 5729 5726 5722 5719 5716 5713 5709 5706 5704 5700 5697 5694 5693 5690 5683 5679 5678 5676 5673 5672 5670 5669 5665 5661 5655 5653 5650 5648 5647
5730 5730 5730 5731 5731 5732 5733 5732 5732 5731 5729 5725 5724 5723 5721 5718 5715 5713 5710 5706 5703 5700 5697 5694 5692 5689 5687 5681 5675 5670 5668 5669 5669 5668 5666 5665 5667 5660 5656 5651 5644 5641 5638
5718 5718 5719 5719 5720 5721 5721 5721 5721 5719 5717 5715 5714 5712 5711 5709 5706 5704 5701 5698 5695 5692 5689 5686 5684 5682 5680 5674 5668 5663 5660 5661 5662 5662 5660 5658 5657 5656 5652 5648 5646 5643 5641
5704 5704 5705 5706 5707 5708 5708 5706 5705 5704 5702 5700 5699 5700 5700 5698 5695 5692 5690 5687 5684 5681 5679 5677 5674 5672 5669 5664 5659 5652 5653 5654 5655 5655 5654 5652 5651 5648 5642 5638 5638 5638 5638
5691 5690 5691 5691 5690 5691 5693 5692 5688 5687 5684 5684 5685 5686 5685 5683 5681 5679 5677 5675 5672 5670 5668 5666 5664 5661 5659 5654 5647 5640 5642 5644 5646 5646 5646 5643 5641 5639 5633 5630 5629 5629 5631
5678 5677 5677 5677 5676 5678 5677 5675 5673 5670 5670 5671 5672 5672 5671 5670 5667 5665 5663 5661 5659 5657 5654 5652 5650 5647 5645 5641 5635 5629 5627 5630 5632 5634 5635 5636 5632 5626 5622 5618 5619 5621 5620
5668 5667 5664 5662 5663 5664 5662 5660 5658 5658 5659 5659 5658 5658 5657 5657 5655 5652 5649 5647 5645 5643 5641 5638 5636 5635 5631 5627 5622 5616 5611 5610 5612 5616 5619 5620 5616 5612 5608 5606 5608 5606 5602
5658 5657 5655 5652 5651 5651 5651 5649 5647 5648 5647 5646 5645 5644 5643 5641 5640 5638 5637 5635 5632 5630 5628 5625 5622 5620 5617 5613 5607 5602 5598 5594 5593 5598 5599 5598 5595 5593 5594 5594 5593 5590 5590
5649 5648 5646 5644 5641 5641 5640 5639 5638 5637 5635 5634 5633 5632 5631 5629 5627 5623 5623 5620 5616 5613 5609 5606 5603 5601 5599 5595 5590 5586 5582 5579 5578 5580 5581 5579 5578 5578 5579 5582 5582 5581 5584
5640 5639 5636 5634 5633 5632 5630 5629 5627 5625 5623 5622 5621 5620 5619 5617 5611 5610 5605 5601 5596 5590 5583 5582 5580 5578 5576 5570 5558 5554 5557 5556 5554 5552 5556 5561 5566 5569 5571 5573 5574 5574 5574
5632 5630 5628 5626 5624 5622 5620 5617 5615 5613 5610 5610 5608 5608 5606 5602 5600 5596 5593 5587 5580 5573 5565 5559 5553 5554 5549 5543 5539 5534 5532 5530 5527 5528 5540 5546 5550 5552 5556 5558 5560 5561 5563